QPF
0.02 0.02 0.02 0.01 0.01 0.01 0.00 0.00 0.00 0.00 0.00 0.00 0.00 0.01 0.02 0.03 0.03 0.04 0.04 0.04 0.04 0.04 0.02 0.01 0.01 0.01 0.01 0.00 0.00 0.00 0.00 0.00 0.01 0.00 0.00 0.00 0.00 0.01 0.01 0.01 0.00 0.00 0.00
0.02 0.03 0.02 0.01 0.01 0.01 0.00 0.00 0.00 0.00 0.00 0.00 0.00 0.01 0.02 0.03 0.03 0.03 0.03 0.03 0.04 0.04 0.03 0.02 0.02 0.01 0.01 0.00 0.01 0.00 0.01 0.01 0.01 0.01 0.00 0.00 0.00 0.00 0.01 0.01 0.00 0.00 0.00
0.01 0.01 0.01 0.01 0.00 0.00 0.01 0.01 0.00 0.00 0.00 0.00 0.00 0.00 0.01 0.01 0.02 0.02 0.03 0.03 0.03 0.03 0.03 0.03 0.02 0.02 0.02 0.01 0.01 0.00 0.00 0.00 0.01 0.01 0.00 0.00 0.00 0.00 0.00 0.00 0.00 0.00 0.00
0.00 0.01 0.01 0.01 0.01 0.01 0.01 0.01 0.01 0.01 0.01 0.00 0.00 0.01 0.01 0.00 0.01 0.01 0.01 0.01 0.01 0.01 0.02 0.01 0.02 0.02 0.02 0.02 0.01 0.01 0.01 0.00 0.01 0.01 0.01 0.00 0.00 0.00 0.00 0.00 0.00 0.00 0.00
0.00 0.00 0.00 0.01 0.01 0.01 0.01 0.01 0.01 0.02 0.02 0.01 0.01 0.01 0.01 0.01 0.01 0.01 0.01 0.01 0.02 0.01 0.02 0.01 0.01 0.01 0.02 0.02 0.01 0.01 0.01 0.01 0.01 0.01 0.00 0.00 0.00 0.00 0.00 0.00 0.00 0.00 0.00
0.01 0.00 0.00 0.00 0.00 0.00 0.01 0.01 0.01 0.01 0.01 0.01 0.01 0.01 0.01 0.00 0.01 0.01 0.01 0.01 0.01 0.02 0.01 0.01 0.00 0.01 0.01 0.01 0.01 0.01 0.01 0.01 0.01 0.01 0.01 0.00 0.00 0.00 0.00 0.00 0.00 0.00 0.00
0.00 0.00 0.00 0.00 0.00 0.00 0.01 0.01 0.01 0.01 0.01 0.01 0.01 0.01 0.01 0.00 0.00 0.01 0.01 0.01 0.01 0.01 0.01 0.01 0.00 0.00 0.00 0.01 0.01 0.01 0.01 0.01 0.00 0.00 0.00 0.00 0.00 0.00 0.00 0.00 0.00 0.00 0.00
0.00 0.00 0.00 0.00 0.00 0.01 0.01 0.01 0.01 0.01 0.01 0.01 0.01 0.01 0.01 0.00 0.00 0.01 0.01 0.01 0.01 0.00 0.00 0.00 0.00 0.00 0.00 0.01 0.01 0.01 0.01 0.01 0.01 0.00 0.00 0.00 0.00 0.00 0.00 0.00 0.00 0.00 0.00
0.00 0.00 0.00 0.00 0.00 0.01 0.01 0.01 0.01 0.01 0.01 0.01 0.01 0.01 0.01 0.01 0.01 0.01 0.01 0.01 0.01 0.01 0.01 0.00 0.00 0.00 0.01 0.01 0.01 0.01 0.01 0.01 0.01 0.01 0.01 0.01 0.01 0.01 0.01 0.01 0.01 0.00 0.00
0.01 0.00 0.00 0.00 0.00 0.01 0.01 0.01 0.01 0.01 0.01 0.01 0.01 0.01 0.01 0.02 0.01 0.01 0.01 0.01 0.00 0.01 0.00 0.00 0.00 0.00 0.01 0.01 0.01 0.01 0.01 0.01 0.01 0.01 0.01 0.01 0.01 0.01 0.01 0.01 0.01 0.01 0.00
0.01 0.01 0.01 0.00 0.00 0.01 0.01 0.02 0.02 0.01 0.01 0.01 0.02 0.02 0.02 0.02 0.02 0.01 0.01 0.00 0.00 0.00 0.00 0.00 0.00 0.00 0.00 0.01 0.00 0.00 0.01 0.01 0.01 0.01 0.01 0.01 0.01 0.01 0.01 0.01 0.01 0.01 0.01
0.01 0.01 0.01 0.00 0.00 0.00 0.01 0.02 0.03 0.03 0.02 0.02 0.02 0.03 0.03 0.02 0.02 0.02 0.01 0.01 0.01 0.01 0.00 0.00 0.00 0.00 0.00 0.00 0.00 0.00 0.00 0.01 0.01 0.02 0.02 0.02 0.02 0.02 0.02 0.01 0.01 0.01 0.01
0.01 0.01 0.01 0.01 0.01 0.01 0.01 0.02 0.03 0.04 0.03 0.02 0.02 0.02 0.03 0.03 0.02 0.02 0.02 0.02 0.01 0.01 0.00 0.00 0.00 0.00 0.00 0.00 0.00 0.00 0.00 0.00 0.01 0.01 0.02 0.02 0.03 0.03 0.03 0.02 0.02 0.01 0.01
0.01 0.01 0.01 0.01 0.01 0.02 0.02 0.02 0.03 0.04 0.04 0.03 0.03 0.02 0.02 0.03 0.02 0.02 0.01 0.01 0.01 0.01 0.00 0.00 0.00 0.00 0.00 0.00 0.00 0.00 0.00 0.00 0.00 0.01 0.01 0.01 0.02 0.03 0.03 0.04 0.04 0.04 0.04
0.02 0.02 0.01 0.02 0.02 0.02 0.02 0.03 0.03 0.04 0.04 0.04 0.05 0.04 0.03 0.02 0.02 0.01 0.01 0.01 0.01 0.01 0.01 0.00 0.00 0.00 0.00 0.00 0.00 0.00 0.00 0.00 0.00 0.00 0.00 0.01 0.01 0.01 0.02 0.02 0.03 0.04 0.06
0.02 0.02 0.02 0.02 0.02 0.02 0.02 0.02 0.03 0.03 0.04 0.04 0.04 0.05 0.04 0.04 0.03 0.01 0.01 0.01 0.01 0.01 0.01 0.00 0.00 0.00 0.00 0.00 0.00 0.00 0.00 0.00 0.00 0.00 0.01 0.01 0.01 0.01 0.01 0.02 0.02 0.03 0.03
0.02 0.01 0.01 0.01 0.02 0.02 0.01 0.01 0.02 0.03 0.03 0.04 0.04 0.03 0.03 0.04 0.04 0.03 0.02 0.02 0.01 0.01 0.01 0.00 0.00 0.00 0.00 0.00 0.00 0.00 0.00 0.00 0.00 0.00 0.01 0.01 0.01 0.01 0.01 0.02 0.02 0.03 0.03
0.02 0.02 0.02 0.02 0.01 0.02 0.02 0.02 0.02 0.02 0.03 0.03 0.04 0.04 0.03 0.03 0.03 0.04 0.03 0.03 0.02 0.02 0.01 0.01 0.01 0.01 0.01 0.00 0.00 0.01 0.00 0.00 0.00 0.00 0.01 0.01 0.01 0.01 0.01 0.01 0.02 0.02 0.03
0.02 0.02 0.02 0.02 0.02 0.02 0.03 0.03 0.03 0.02 0.02 0.02 0.03 0.03 0.03 0.02 0.03 0.03 0.02 0.02 0.02 0.03 0.03 0.02 0.02 0.02 0.01 0.01 0.01 0.01 0.01 0.01 0.01 0.01 0.01 0.01 0.01 0.01 0.01 0.01 0.01 0.02 0.02
0.02 0.04 0.03 0.03 0.03 0.03 0.02 0.03 0.03 0.03 0.03 0.03 0.02 0.02 0.02 0.01 0.01 0.01 0.01 0.01 0.01 0.01 0.01 0.01 0.01 0.01 0.01 0.01 0.01 0.01 0.01 0.01 0.01 0.01 0.01 0.01 0.01 0.01 0.02 0.02 0.02 0.02 0.02
0.02 0.03 0.03 0.03 0.03 0.03 0.03 0.03 0.03 0.03 0.03 0.03 0.03 0.03 0.03 0.02 0.01 0.01 0.01 0.01 0.01 0.01 0.01 0.01 0.01 0.01 0.01 0.01 0.01 0.01 0.01 0.01 0.01 0.01 0.01 0.01 0.01 0.01 0.02 0.02 0.02 0.02 0.02
0.01 0.02 0.02 0.02 0.03 0.03 0.03 0.04 0.04 0.03 0.03 0.02 0.03 0.03 0.04 0.03 0.03 0.03 0.03 0.02 0.02 0.02 0.02 0.02 0.02 0.01 0.02 0.01 0.01 0.01 0.01 0.01 0.01 0.01 0.01 0.01 0.01 0.01 0.01 0.02 0.02 0.02 0.02
0.01 0.02 0.02 0.02 0.03 0.03 0.03 0.03 0.03 0.03 0.03 0.02 0.02 0.02 0.03 0.02 0.02 0.02 0.02 0.01 0.01 0.01 0.01 0.01 0.01 0.01 0.02 0.01 0.01 0.01 0.02 0.02 0.01 0.01 0.01 0.01 0.01 0.01 0.01 0.02 0.02 0.02 0.02
0.02 0.02 0.02 0.02 0.03 0.04 0.04 0.04 0.04 0.04 0.04 0.03 0.03 0.03 0.03 0.03 0.02 0.02 0.02 0.01 0.01 0.01 0.01 0.01 0.01 0.01 0.01 0.01 0.02 0.02 0.02 0.02 0.01 0.01 0.01 0.01 0.02 0.01 0.02 0.02 0.02 0.02 0.02
0.01 0.02 0.02 0.02 0.03 0.04 0.04 0.04 0.04 0.04 0.04 0.04 0.04 0.04 0.04 0.03 0.03 0.03 0.03 0.03 0.02 0.02 0.01 0.01 0.01 0.01 0.01 0.01 0.01 0.01 0.01 0.01 0.02 0.02 0.02 0.02 0.02 0.02 0.02 0.02 0.02 0.02 0.03
0.01 0.02 0.02 0.02 0.02 0.03 0.03 0.04 0.04 0.04 0.04 0.04 0.04 0.04 0.04 0.03 0.03 0.03 0.02 0.02 0.02 0.03 0.02 0.02 0.01 0.01 0.01 0.01 0.01 0.01 0.01 0.01 0.02 0.02 0.02 0.02 0.02 0.03 0.03 0.03 0.03 0.03 0.03
MSLP
1028.30 1028.47 1028.61 1028.73 1028.81 1028.87 1028.91 1028.95 1029.00 1029.07 1029.18 1029.31 1029.45 1029.60 1029.73 1029.84 1029.92 1029.95 1029.96 1029.93 1029.89 1029.83 1029.76 1029.66 1029.54 1029.38 1029.17 1028.92 1028.63 1028.32 1028.00 1027.70 1027.42 1027.19 1026.99 1026.82 1026.67 1026.50 1026.31 1026.07 1025.78 1025.45 1025.08
1028.79 1028.97 1029.12 1029.23 1029.32 1029.38 1029.43 1029.49 1029.57 1029.67 1029.80 1029.95 1030.10 1030.25 1030.36 1030.44 1030.47 1030.47 1030.43 1030.38 1030.32 1030.26 1030.19 1030.12 1030.03 1029.91 1029.74 1029.52 1029.25 1028.95 1028.62 1028.28 1027.96 1027.66 1027.39 1027.13 1026.90 1026.65 1026.38 1026.09 1025.75 1025.39 1025.00
1029.19 1029.40 1029.57 1029.70 1029.79 1029.87 1029.94 1030.03 1030.14 1030.28 1030.43 1030.60 1030.76 1030.89 1030.98 1031.02 1031.01 1030.95 1030.87 1030.79 1030.70 1030.63 1030.58 1030.54 1030.49 1030.41 1030.30 1030.13 1029.90 1029.62 1029.30 1028.95 1028.60 1028.25 1027.92 1027.59 1027.28 1026.96 1026.62 1026.25 1025.86 1025.45 1025.02
1029.46 1029.72 1029.92 1030.07 1030.19 1030.29 1030.40 1030.52 1030.67 1030.84 1031.03 1031.22 1031.39 1031.51 1031.58 1031.59 1031.54 1031.44 1031.32 1031.20 1031.10 1031.03 1030.99 1030.97 1030.95 1030.92 1030.86 1030.74 1030.55 1030.30 1030.00 1029.66 1029.29 1028.92 1028.55 1028.17 1027.80 1027.41 1027.01 1026.59 1026.14 1025.67 1025.18
1029.57 1029.88 1030.12 1030.32 1030.47 1030.61 1030.75 1030.92 1031.10 1031.31 1031.54 1031.75 1031.93 1032.06 1032.12 1032.11 1032.05 1031.93 1031.79 1031.65 1031.54 1031.47 1031.43 1031.43 1031.44 1031.44 1031.40 1031.32 1031.17 1030.95 1030.66 1030.33 1029.97 1029.58 1029.19 1028.79 1028.38 1027.96 1027.52 1027.06 1026.56 1026.04 1025.50
1029.49 1029.86 1030.16 1030.41 1030.61 1030.79 1030.97 1031.17 1031.40 1031.64 1031.90 1032.14 1032.34 1032.49 1032.57 1032.57 1032.51 1032.40 1032.26 1032.13 1032.02 1031.94 1031.91 1031.91 1031.92 1031.93 1031.90 1031.83 1031.68 1031.48 1031.20 1030.88 1030.52 1030.14 1029.75 1029.34 1028.93 1028.51 1028.06 1027.57 1027.05 1026.50 1025.91
1029.22 1029.67 1030.03 1030.34 1030.59 1030.82 1031.04 1031.28 1031.54 1031.81 1032.10 1032.36 1032.60 1032.78 1032.89 1032.92 1032.89 1032.81 1032.70 1032.59 1032.49 1032.42 1032.39 1032.37 1032.37 1032.36 1032.31 1032.22 1032.06 1031.84 1031.57 1031.25 1030.89 1030.52 1030.14 1029.76 1029.37 1028.96 1028.53 1028.05 1027.53 1026.96 1026.35
1028.80 1029.32 1029.76 1030.12 1030.43 1030.71 1030.97 1031.24 1031.52 1031.82 1032.12 1032.42 1032.68 1032.90 1033.05 1033.14 1033.16 1033.13 1033.07 1032.99 1032.92 1032.86 1032.81 1032.78 1032.74 1032.69 1032.60 1032.46 1032.27 1032.03 1031.73 1031.40 1031.06 1030.70 1030.34 1029.99 1029.63 1029.26 1028.86 1028.41 1027.91 1027.35 1026.72
1028.28 1028.87 1029.38 1029.81 1030.17 1030.49 1030.79 1031.08 1031.38 1031.69 1032.01 1032.32 1032.61 1032.86 1033.06 1033.21 1033.30 1033.33 1033.33 1033.30 1033.26 1033.21 1033.15 1033.09 1033.01 1032.91 1032.76 1032.57 1032.33 1032.05 1031.73 1031.39 1031.05 1030.70 1030.37 1030.04 1029.72 1029.38 1029.02 1028.61 1028.13 1027.59 1026.97
1027.69 1028.35 1028.93 1029.42 1029.84 1030.21 1030.54 1030.85 1031.15 1031.47 1031.79 1032.11 1032.42 1032.70 1032.95 1033.15 1033.30 1033.40 1033.46 1033.48 1033.47 1033.43 1033.37 1033.28 1033.16 1033.01 1032.81 1032.57 1032.28 1031.97 1031.63 1031.28 1030.93 1030.60 1030.28 1029.98 1029.67 1029.36 1029.02 1028.64 1028.19 1027.67 1027.07
1027.07 1027.79 1028.43 1028.98 1029.46 1029.87 1030.23 1030.56 1030.87 1031.19 1031.51 1031.83 1032.15 1032.45 1032.73 1032.98 1033.18 1033.34 1033.45 1033.52 1033.54 1033.52 1033.46 1033.35 1033.20 1033.01 1032.77 1032.49 1032.17 1031.83 1031.48 1031.13 1030.79 1030.46 1030.15 1029.85 1029.56 1029.25 1028.92 1028.54 1028.10 1027.58 1026.99
1026.41 1027.18 1027.88 1028.49 1029.02 1029.47 1029.86 1030.21 1030.54 1030.86 1031.17 1031.49 1031.81 1032.13 1032.43 1032.71 1032.96 1033.16 1033.32 1033.42 1033.47 1033.47 1033.41 1033.29 1033.13 1032.91 1032.65 1032.36 1032.03 1031.69 1031.35 1031.00 1030.66 1030.34 1030.03 1029.73 1029.42 1029.10 1028.74 1028.35 1027.89 1027.37 1026.78
1025.71 1026.52 1027.26 1027.92 1028.50 1028.99 1029.43 1029.81 1030.15 1030.47 1030.79 1031.11 1031.44 1031.76 1032.08 1032.38 1032.65 1032.88 1033.07 1033.20 1033.27 1033.27 1033.22 1033.10 1032.94 1032.72 1032.47 1032.18 1031.87 1031.55 1031.22 1030.90 1030.58 1030.26 1029.95 1029.63 1029.29 1028.94 1028.55 1028.11 1027.62 1027.08 1026.47
1024.95 1025.78 1026.55 1027.25 1027.88 1028.42 1028.89 1029.31 1029.68 1030.02 1030.35 1030.68 1031.01 1031.34 1031.67 1031.98 1032.26 1032.51 1032.71 1032.85 1032.93 1032.94 1032.89 1032.79 1032.63 1032.43 1032.19 1031.93 1031.66 1031.38 1031.09 1030.81 1030.51 1030.21 1029.89 1029.55 1029.19 1028.79 1028.34 1027.85 1027.32 1026.73 1026.10
1024.13 1024.96 1025.75 1026.48 1027.14 1027.73 1028.24 1028.70 1029.11 1029.48 1029.84 1030.18 1030.52 1030.86 1031.19 1031.51 1031.80 1032.05 1032.25 1032.39 1032.47 1032.49 1032.44 1032.34 1032.19 1032.01 1031.81 1031.60 1031.37 1031.14 1030.91 1030.67 1030.41 1030.13 1029.82 1029.47 1029.07 1028.63 1028.14 1027.59 1027.00 1026.37 1025.71
1023.24 1024.06 1024.85 1025.60 1026.29 1026.91 1027.47 1027.97 1028.42 1028.83 1029.22 1029.59 1029.95 1030.31 1030.65 1030.97 1031.25 1031.50 1031.70 1031.83 1031.90 1031.91 1031.86 1031.77 1031.63 1031.48 1031.31 1031.14 1030.97 1030.80 1030.63 1030.44 1030.23 1029.98 1029.69 1029.34 1028.93 1028.45 1027.92 1027.33 1026.70 1026.03 1025.33
1022.32 1023.12 1023.90 1024.65 1025.36 1026.01 1026.60 1027.14 1027.63 1028.08 1028.50 1028.90 1029.29 1029.66 1030.01 1030.33 1030.62 1030.86 1031.05 1031.17 1031.23 1031.23 1031.18 1031.09 1030.97 1030.84 1030.71 1030.58 1030.46 1030.35 1030.23 1030.10 1029.94 1029.74 1029.47 1029.14 1028.73 1028.24 1027.69 1027.08 1026.41 1025.71 1024.99
1021.43 1022.19 1022.95 1023.69 1024.40 1025.06 1025.67 1026.23 1026.75 1027.23 1027.69 1028.11 1028.52 1028.91 1029.27 1029.60 1029.89 1030.13 1030.31 1030.42 1030.47 1030.47 1030.42 1030.33 1030.22 1030.11 1030.01 1029.92 1029.85 1029.79 1029.73 1029.66 1029.55 1029.39 1029.16 1028.86 1028.47 1027.99 1027.44 1026.82 1026.15 1025.43 1024.68
1020.60 1021.33 1022.06 1022.77 1023.46 1024.12 1024.73 1025.30 1025.83 1026.32 1026.79 1027.23 1027.66 1028.05 1028.42 1028.76 1029.05 1029.29 1029.47 1029.58 1029.63 1029.63 1029.59 1029.51 1029.42 1029.33 1029.26 1029.21 1029.18 1029.17 1029.16 1029.14 1029.08 1028.97 1028.79 1028.52 1028.16 1027.71 1027.18 1026.57 1025.90 1025.18 1024.42
1019.87 1020.56 1021.25 1021.93 1022.59 1023.22 1023.81 1024.36 1024.88 1025.37 1025.83 1026.28 1026.70 1027.10 1027.47 1027.81 1028.10 1028.35 1028.53 1028.66 1028.72 1028.73 1028.70 1028.65 1028.59 1028.53 1028.49 1028.48 1028.49 1028.53 1028.56 1028.59 1028.58 1028.51 1028.38 1028.15 1027.83 1027.41 1026.91 1026.31 1025.66 1024.94 1024.19
1019.23 1019.89 1020.54 1021.18 1021.80 1022.38 1022.93 1023.45 1023.93 1024.39 1024.83 1025.25 1025.66 1026.04 1026.41 1026.75 1027.04 1027.30 1027.49 1027.64 1027.72 1027.76 1027.77 1027.75 1027.72 1027.71 1027.71 1027.75 1027.80 1027.88 1027.96 1028.03 1028.06 1028.04 1027.95 1027.76 1027.47 1027.09 1026.61 1026.04 1025.40 1024.70 1023.96
1018.68 1019.30 1019.92 1020.51 1021.07 1021.61 1022.10 1022.57 1023.00 1023.41 1023.80 1024.19 1024.56 1024.92 1025.27 1025.59 1025.89 1026.15 1026.36 1026.53 1026.65 1026.72 1026.77 1026.80 1026.83 1026.86 1026.92 1027.00 1027.10 1027.22 1027.35 1027.46 1027.53 1027.55 1027.49 1027.34 1027.08 1026.73 1026.28 1025.73 1025.11 1024.42 1023.68
1018.16 1018.76 1019.34 1019.89 1020.40 1020.87 1021.31 1021.71 1022.08 1022.43 1022.77 1023.10 1023.43 1023.75 1024.07 1024.38 1024.67 1024.92 1025.15 1025.34 1025.49 1025.61 1025.70 1025.79 1025.87 1025.96 1026.07 1026.20 1026.36 1026.53 1026.70 1026.85 1026.96 1027.01 1026.98 1026.86 1026.63 1026.30 1025.86 1025.34 1024.73 1024.06 1023.34
1017.64 1018.22 1018.77 1019.28 1019.74 1020.16 1020.53 1020.87 1021.18 1021.47 1021.75 1022.02 1022.30 1022.58 1022.86 1023.14 1023.41 1023.66 1023.89 1024.09 1024.27 1024.42 1024.56 1024.68 1024.82 1024.96 1025.13 1025.32 1025.53 1025.75 1025.96 1026.15 1026.29 1026.38 1026.37 1026.27 1026.07 1025.76 1025.34 1024.83 1024.24 1023.59 1022.89
1017.08 1017.65 1018.17 1018.64 1019.06 1019.43 1019.76 1020.04 1020.30 1020.53 1020.76 1020.98 1021.21 1021.45 1021.69 1021.94 1022.18 1022.41 1022.62 1022.82 1023.00 1023.17 1023.33 1023.50 1023.67 1023.86 1024.08 1024.32 1024.58 1024.84 1025.09 1025.32 1025.50 1025.61 1025.64 1025.56 1025.38 1025.09 1024.69 1024.20 1023.63 1023.00 1022.33
1016.48 1017.02 1017.52 1017.96 1018.35 1018.69 1018.98 1019.23 1019.45 1019.64 1019.83 1020.01 1020.20 1020.40 1020.60 1020.80 1021.01 1021.20 1021.39 1021.56 1021.73 1021.90 1022.06 1022.24 1022.44 1022.66 1022.91 1023.19 1023.48 1023.79 1024.08 1024.35 1024.56 1024.71 1024.76 1024.71 1024.55 1024.28 1023.91 1023.45 1022.91 1022.31 1021.67
Thickness
5699 5698 5695 5693 5692 5691 5689 5687 5686 5685 5683 5682 5681 5680 5679 5677 5675 5673 5671 5669 5668 5666 5665 5663 5662 5660 5659 5658 5656 5654 5653 5652 5649 5649 5648 5646 5643 5641 5639 5638 5637 5636 5634
5696 5694 5691 5690 5688 5687 5685 5684 5683 5682 5681 5680 5678 5676 5674 5673 5671 5669 5667 5665 5663 5662 5661 5659 5657 5655 5653 5652 5650 5649 5648 5646 5644 5641 5641 5639 5637 5635 5633 5632 5631 5630 5629
5692 5690 5688 5686 5685 5684 5682 5681 5679 5679 5677 5676 5675 5672 5670 5669 5667 5666 5663 5661 5660 5659 5657 5655 5653 5652 5649 5647 5645 5644 5643 5642 5639 5637 5635 5633 5631 5629 5627 5625 5625 5623 5623
5688 5686 5684 5683 5681 5680 5678 5677 5676 5675 5673 5672 5670 5668 5666 5665 5663 5661 5659 5658 5656 5654 5652 5650 5649 5648 5645 5644 5641 5640 5638 5635 5633 5631 5629 5627 5625 5622 5620 5620 5619 5617 5616
5685 5683 5681 5680 5678 5676 5674 5673 5672 5670 5669 5667 5665 5664 5662 5660 5658 5656 5655 5653 5651 5649 5647 5646 5643 5641 5638 5637 5636 5634 5632 5630 5627 5624 5622 5620 5618 5615 5614 5613 5611 5611 5609
5682 5680 5678 5676 5673 5672 5670 5669 5667 5665 5664 5662 5660 5658 5656 5654 5650 5648 5648 5648 5647 5645 5642 5640 5637 5634 5631 5629 5627 5625 5623 5623 5621 5618 5615 5614 5612 5609 5606 5605 5604 5603 5602
5679 5676 5673 5671 5669 5668 5666 5664 5662 5660 5658 5656 5655 5653 5651 5648 5643 5641 5639 5641 5641 5639 5637 5634 5632 5629 5626 5625 5621 5617 5615 5612 5610 5611 5609 5607 5605 5603 5599 5597 5595 5593 5591
5674 5671 5669 5667 5665 5663 5661 5659 5658 5657 5654 5651 5650 5648 5645 5642 5638 5635 5633 5634 5634 5632 5630 5628 5626 5623 5620 5617 5616 5613 5611 5608 5604 5602 5600 5598 5595 5593 5591 5588 5586 5584 5582
5668 5666 5665 5663 5660 5658 5656 5654 5653 5652 5649 5647 5645 5643 5640 5638 5633 5629 5626 5627 5627 5625 5623 5620 5618 5616 5610 5607 5607 5606 5603 5599 5595 5591 5588 5586 5583 5581 5579 5579 5577 5575 5574
5663 5661 5660 5658 5655 5654 5653 5650 5648 5646 5644 5642 5639 5638 5636 5633 5628 5623 5620 5621 5620 5618 5616 5613 5608 5606 5601 5598 5599 5598 5595 5592 5589 5585 5582 5578 5576 5573 5570 5569 5568 5567 5566
5657 5656 5654 5653 5651 5650 5648 5645 5643 5641 5638 5636 5634 5632 5630 5627 5622 5617 5614 5614 5613 5612 5609 5606 5603 5596 5592 5590 5589 5589 5586 5583 5581 5579 5576 5573 5569 5566 5563 5559 5557 5556 5555
5651 5649 5648 5647 5646 5644 5641 5639 5638 5635 5632 5630 5627 5625 5623 5620 5616 5612 5608 5606 5605 5604 5602 5600 5595 5589 5585 5582 5580 5578 5575 5572 5572 5570 5568 5565 5561 5558 5554 5551 5548 5545 5543
5645 5643 5642 5641 5640 5638 5636 5633 5631 5629 5627 5625 5622 5619 5617 5615 5611 5606 5602 5599 5596 5595 5594 5590 5586 5581 5578 5575 5572 5569 5566 5566 5564 5561 5559 5556 5552 5549 5546 5542 5539 5536 5534
5640 5638 5637 5636 5634 5632 5629 5627 5625 5623 5621 5618 5616 5613 5611 5608 5605 5601 5597 5593 5589 5587 5585 5582 5577 5574 5571 5569 5566 5564 5561 5559 5556 5553 5550 5547 5544 5540 5537 5534 5531 5529 5527
5635 5633 5632 5630 5628 5626 5623 5620 5618 5616 5614 5611 5610 5607 5604 5602 5599 5594 5591 5589 5586 5583 5578 5576 5573 5571 5568 5565 5562 5559 5555 5552 5548 5545 5542 5539 5536 5532 5529 5525 5522 5521 5520
5630 5628 5625 5623 5621 5619 5616 5612 5608 5607 5604 5602 5600 5598 5597 5593 5589 5586 5583 5580 5576 5573 5570 5569 5568 5566 5563 5560 5556 5553 5549 5546 5543 5539 5535 5532 5528 5525 5522 5518 5515 5513 5512
5623 5622 5619 5617 5615 5612 5609 5606 5603 5598 5595 5593 5591 5590 5588 5584 5581 5578 5575 5571 5567 5565 5564 5564 5562 5559 5556 5552 5549 5546 5543 5539 5535 5532 5528 5525 5521 5518 5515 5512 5509 5506 5504
5616 5613 5611 5610 5608 5606 5603 5601 5599 5595 5592 5589 5585 5582 5579 5576 5573 5570 5566 5563 5561 5558 5559 5557 5555 5552 5548 5545 5541 5538 5535 5532 5528 5525 5521 5518 5514 5511 5508 5506 5502 5498 5495
5607 5605 5604 5602 5600 5599 5596 5594 5592 5589 5586 5584 5581 5576 5571 5568 5565 5562 5559 5559 5557 5555 5552 5549 5547 5544 5540 5537 5534 5531 5528 5525 5521 5518 5515 5511 5508 5504 5502 5499 5495 5490 5487
5598 5594 5593 5593 5591 5590 5588 5586 5584 5581 5579 5576 5574 5571 5566 5561 5560 5557 5554 5553 5551 5549 5546 5543 5540 5537 5533 5530 5527 5523 5521 5518 5515 5512 5509 5505 5501 5498 5495 5491 5488 5484 5481
5589 5587 5583 5583 5583 5581 5580 5578 5576 5574 5571 5569 5566 5562 5557 5556 5555 5552 5549 5547 5545 5543 5540 5537 5534 5531 5527 5523 5520 5517 5515 5512 5510 5506 5503 5499 5495 5491 5488 5485 5481 5477 5474
5581 5580 5577 5576 5574 5573 5571 5570 5568 5565 5563 5560 5557 5554 5549 5548 5548 5546 5543 5541 5539 5536 5533 5529 5527 5524 5521 5518 5514 5512 5509 5507 5504 5500 5496 5492 5488 5485 5481 5478 5474 5471 5467
5572 5571 5570 5568 5566 5563 5562 5561 5559 5557 5554 5552 5549 5546 5543 5541 5540 5538 5535 5533 5530 5528 5525 5522 5520 5517 5514 5511 5508 5505 5503 5501 5497 5493 5489 5486 5482 5479 5475 5472 5468 5464 5460
5563 5562 5561 5560 5558 5556 5555 5553 5551 5549 5546 5544 5541 5539 5536 5534 5532 5529 5527 5525 5523 5520 5518 5515 5513 5510 5507 5503 5501 5498 5495 5492 5488 5485 5482 5478 5475 5472 5469 5465 5461 5457 5453
5555 5554 5553 5552 5550 5548 5546 5545 5543 5540 5538 5535 5533 5531 5529 5526 5524 5522 5519 5516 5514 5512 5510 5508 5505 5502 5500 5497 5494 5490 5487 5483 5480 5476 5473 5470 5468 5465 5462 5458 5455 5451 5446
5546 5546 5545 5544 5542 5540 5538 5536 5534 5532 5530 5527 5525 5522 5521 5519 5516 5514 5511 5509 5507 5505 5502 5500 5498 5495 5492 5489 5486 5483 5479 5476 5472 5469 5466 5463 5461 5458 5455 5451 5448 5444 5440